Home   Weather   Wittenberg   Past weeks

Flag for Germany Past Weather in Wittenberg, Saxony-Anhalt, Germany — Yesterday and Last 2 Weeks

Now
73 °F

Scattered clouds.


Feels Like: 77 °F
Forecast: 49 / 73 °F
Wind: 6 mph from South

Location: Holzdorf

Current Time: Sep 25, 2016 at 5:50:57 PM

Latest Report: Sep 25, 2016 at 5:20 PM


Visibility: N/A

Pressure: 30.09 "Hg

Humidity: 36%

Dew Point: 45 °F

Location of WittenbergLocation

Past Weather in Wittenberg — Graph

°F

Wittenberg Temperature Yesterday

Maximum temperature yesterday: 70 °F (at 3:20 PM)
Minimum temperature yesterday: 46 °F (at 3:20 AM)
Average temperature yesterday: 56 °F

High & Low Weather Summary for the Past Weeks

 TemperatureHumidityPressure
High90 °F (Sep 12, 3:20 PM)100% (Sep 11, 7:20 AM)30.30 "Hg (Sep 11, 7:20 AM)
Low41 °F (Sep 22, 7:20 AM)28% (Sep 15, 3:20 PM)29.83 "Hg (Sep 17, 4:20 AM)
Average63 °F69%30.06 "Hg
* Reported Sep 10 4:20 PM — Sep 25 4:20 PM, Wittenberg, Weather by CustomWeather, © 2016

Note: Actual official high and low records may vary slightly from our data, if they occured in-between our weather recording intervals... More about our weather records

Advertising

Wittenberg Weather History for the Previous 24 Hours

Scroll right to see more
 ConditionsComfort  
Time TempWeatherWind HumidityBarometerVisibility
4:20 PM
Sun, Sep 25
73 °FScattered clouds.8 mph38%30.12 "HgN/A
3:20 PM73 °FPartly sunny.7 mph41%30.12 "HgN/A
2:20 PM73 °FPartly sunny.7 mph41%30.12 "HgN/A
1:20 PM72 °FPartly sunny.8 mph47%30.15 "HgN/A
12:20 PM70 °FPartly sunny.10 mph50%30.18 "HgN/A
11:20 AM66 °FPartly sunny.7 mph64%30.18 "HgN/A
10:20 AM61 °FPartly sunny.7 mph72%30.18 "HgN/A
9:20 AM54 °FPartly sunny.5 mph94%30.21 "Hg6 mi
8:20 AM46 °FPartly sunny.2 mph100%30.21 "Hg5 mi
7:20 AM43 °FFog.1 mph100%30.21 "Hg5 mi
6:20 AM43 °FFog.2 mph100%30.21 "Hg4 mi
5:20 AM43 °FFog.No wind100%30.21 "Hg5 mi
4:20 AM43 °FPassing clouds.No wind100%30.21 "Hg5 mi
3:20 AM43 °FPassing clouds.1 mph100%30.21 "Hg5 mi
2:20 AM45 °FPassing clouds.1 mph100%30.24 "HgN/A
1:20 AM46 °FPassing clouds.1 mph93%30.24 "HgN/A
12:20 AM46 °FPassing clouds.1 mph100%30.24 "HgN/A
11:20 PM
Sat, Sep 24
48 °FPassing clouds.1 mph94%30.24 "HgN/A
10:20 PM50 °FPassing clouds.1 mph88%30.24 "HgN/A
9:20 PM52 °FPassing clouds.1 mph82%30.24 "HgN/A
8:20 PM54 °FPassing clouds.2 mph82%30.24 "HgN/A
7:20 PM57 °FPassing clouds.1 mph72%30.24 "HgN/A
6:20 PM66 °FPartly sunny.2 mph49%30.24 "HgN/A
5:20 PM70 °FPartly sunny.5 mph43%30.24 "HgN/A
Weather by CustomWeather, © 2016

See weather overviewHow to use our weather pages